Meteo pe oră la Alexandria

Astăzi, 17 Aprilie, Sâmbătă

Timp Temperatura Precipitaţii Vânt Presiune Umiditate
00:00 +5°C° 0 mm 2 m/s 757 mmHg 64%
01:00 +4°C° 0 mm 2 m/s 757 mmHg 65%
02:00 +5°C° 0 mm 1 m/s 757 mmHg 65%
03:00 +5°C° 0 mm 1 m/s 757 mmHg 64%
04:00 +5°C° 0 mm 1 m/s 757 mmHg 63%
05:00 +4°C° 0 mm 0 m/s 757 mmHg 62%
06:00 +6°C° 0 mm 1 m/s 757 mmHg 60%
07:00 +7°C° 0 mm 1 m/s 757 mmHg 57%
08:00 +9°C° 0 mm 1 m/s 757 mmHg 55%
09:00 +9°C° 0 mm 2 m/s 757 mmHg 53%
10:00 +12°C° 0 mm 2 m/s 757 mmHg 51%
11:00 +12°C° 0 mm 3 m/s 756 mmHg 49%
12:00 +13°C° 0 mm 3 m/s 756 mmHg 51%
13:00 +13°C° 0 mm 3 m/s 755 mmHg 53%
14:00 +13°C° 0 mm 3 m/s 755 mmHg 55%
15:00 +12°C° 0.2 mm 3 m/s 754 mmHg 63%
16:00 +11°C° 0.2 mm 3 m/s 754 mmHg 70%
17:00 +11°C° 0.2 mm 3 m/s 754 mmHg 78%
18:00 +10°C° 0.5 mm 3 m/s 754 mmHg 79%
19:00 +10°C° 0.5 mm 4 m/s 754 mmHg 81%
20:00 +8°C° 0.5 mm 4 m/s 754 mmHg 83%
21:00 +8°C° 0.1 mm 4 m/s 754 mmHg 81%
22:00 +8°C° 0.1 mm 5 m/s 754 mmHg 80%
23:00 +7°C° 0.1 mm 5 m/s 754 mmHg 78%

Mâine, 18 Aprilie, Duminică

Timp Temperatura Precipitaţii Vânt Presiune Umiditate
00:00 +7°C° 0 mm 5 m/s 754 mmHg 77%
01:00 +7°C° 0 mm 5 m/s 754 mmHg 76%
02:00 +7°C° 0 mm 5 m/s 754 mmHg 75%
03:00 +7°C° 0 mm 5 m/s 754 mmHg 75%
04:00 +6°C° 0 mm 5 m/s 754 mmHg 76%
05:00 +6°C° 0 mm 5 m/s 753 mmHg 76%
06:00 +7°C° 0 mm 5 m/s 753 mmHg 75%
07:00 +7°C° 0 mm 5 m/s 753 mmHg 75%
08:00 +7°C° 0 mm 6 m/s 753 mmHg 74%
09:00 +8°C° 0 mm 6 m/s 753 mmHg 71%
10:00 +10°C° 0 mm 6 m/s 753 mmHg 67%
11:00 +11°C° 0 mm 6 m/s 753 mmHg 64%
12:00 +12°C° 0 mm 5 m/s 753 mmHg 68%
13:00 +10°C° 0 mm 5 m/s 753 mmHg 72%
14:00 +11°C° 0 mm 4 m/s 754 mmHg 75%
15:00 +10°C° 0.1 mm 4 m/s 754 mmHg 78%
16:00 +10°C° 0.1 mm 4 m/s 754 mmHg 80%
17:00 +10°C° 0.1 mm 4 m/s 754 mmHg 83%
18:00 +9°C° 0 mm 3 m/s 754 mmHg 86%
19:00 +8°C° 0 mm 3 m/s 755 mmHg 89%
20:00 +8°C° 0 mm 2 m/s 755 mmHg 92%
21:00 +8°C° 0 mm 2 m/s 755 mmHg 91%
22:00 +9°C° 0 mm 1 m/s 755 mmHg 90%
23:00 +9°C° 0 mm 1 m/s 755 mmHg 89%

Poimâine, 19 Aprilie, Luni

Timp Temperatura Precipitaţii Vânt Presiune Umiditate
00:00 +9°C° 0 mm 1 m/s 755 mmHg 89%
01:00 +9°C° 0 mm 1 m/s 755 mmHg 90%
02:00 +9°C° 0 mm 1 m/s 754 mmHg 90%
03:00 +9°C° 0 mm 1 m/s 754 mmHg 90%
04:00 +8°C° 0 mm 1 m/s 754 mmHg 91%
05:00 +8°C° 0 mm 1 m/s 753 mmHg 91%
06:00 +7°C° 0.7 mm 2 m/s 753 mmHg 91%
07:00 +8°C° 0.7 mm 2 m/s 753 mmHg 90%
08:00 +8°C° 0.7 mm 2 m/s 753 mmHg 90%
09:00 +8°C° 1.2 mm 2 m/s 753 mmHg 89%
10:00 +9°C° 1.2 mm 1 m/s 753 mmHg 89%
11:00 +9°C° 1.2 mm 1 m/s 753 mmHg 89%
12:00 +10°C° 1.4 mm 1 m/s 753 mmHg 89%
13:00 +10°C° 1.4 mm 1 m/s 752 mmHg 88%
14:00 +10°C° 1.4 mm 1 m/s 752 mmHg 87%
15:00 +10°C° 0.5 mm 1 m/s 751 mmHg 88%
16:00 +10°C° 0.5 mm 1 m/s 751 mmHg 89%
17:00 +10°C° 0.5 mm 1 m/s 750 mmHg 89%
18:00 +8°C° 0.2 mm 2 m/s 750 mmHg 91%
19:00 +8°C° 0.2 mm 2 m/s 750 mmHg 93%
20:00 +8°C° 0.2 mm 2 m/s 750 mmHg 94%
21:00 +8°C° 0.4 mm 2 m/s 750 mmHg 95%
22:00 +8°C° 0.4 mm 3 m/s 749 mmHg 95%
23:00 +8°C° 0.4 mm 3 m/s 749 mmHg 96%

20 Aprilie, Marţi

Timp Temperatura Precipitaţii Vânt Presiune Umiditate
00:00 +8°C° 0.5 mm 3 m/s 749 mmHg 96%
01:00 +8°C° 0.5 mm 3 m/s 749 mmHg 95%
02:00 +8°C° 0.5 mm 3 m/s 748 mmHg 95%
03:00 +7°C° 0.1 mm 4 m/s 748 mmHg 95%
04:00 +7°C° 0.1 mm 4 m/s 748 mmHg 94%
05:00 +6°C° 0.1 mm 5 m/s 748 mmHg 93%
06:00 +7°C° 0 mm 5 m/s 748 mmHg 89%
07:00 +7°C° 0 mm 6 m/s 749 mmHg 86%
08:00 +8°C° 0 mm 7 m/s 749 mmHg 82%
09:00 +9°C° 0 mm 7 m/s 749 mmHg 76%
10:00 +11°C° 0 mm 8 m/s 750 mmHg 69%
11:00 +12°C° 0 mm 8 m/s 750 mmHg 63%
12:00 +12°C° 0 mm 8 m/s 750 mmHg 61%
13:00 +13°C° 0 mm 8 m/s 750 mmHg 59%
14:00 +13°C° 0 mm 8 m/s 750 mmHg 57%
15:00 +13°C° 0 mm 8 m/s 750 mmHg 58%
16:00 +13°C° 0 mm 8 m/s 750 mmHg 59%
17:00 +14°C° 0 mm 7 m/s 751 mmHg 59%
18:00 +11°C° 0 mm 6 m/s 751 mmHg 63%
19:00 +10°C° 0 mm 5 m/s 751 mmHg 67%
20:00 +9°C° 0 mm 5 m/s 752 mmHg 70%
21:00 +8°C° 0 mm 4 m/s 752 mmHg 73%
22:00 +8°C° 0 mm 4 m/s 752 mmHg 75%
23:00 +7°C° 0 mm 4 m/s 753 mmHg 78%

21 Aprilie, Miercuri

Timp Temperatura Precipitaţii Vânt Presiune Umiditate
00:00 +7°C° 0 mm 4 m/s 753 mmHg 80%
01:00 +6°C° 0 mm 4 m/s 753 mmHg 82%
02:00 +6°C° 0 mm 4 m/s 753 mmHg 84%
03:00 +6°C° 0 mm 4 m/s 753 mmHg 85%
04:00 +5°C° 0 mm 4 m/s 754 mmHg 86%
05:00 +5°C° 0 mm 4 m/s 754 mmHg 87%
06:00 +6°C° 0 mm 5 m/s 754 mmHg 82%
07:00 +8°C° 0 mm 5 m/s 755 mmHg 78%
08:00 +9°C° 0 mm 6 m/s 755 mmHg 74%
09:00 +10°C° 0 mm 6 m/s 755 mmHg 68%
10:00 +13°C° 0 mm 5 m/s 755 mmHg 63%
11:00 +14°C° 0 mm 5 m/s 756 mmHg 57%
12:00 +15°C° 0.1 mm 5 m/s 755 mmHg 54%
13:00 +16°C° 0.1 mm 6 m/s 755 mmHg 50%
14:00 +17°C° 0.1 mm 6 m/s 755 mmHg 47%
15:00 +17°C° 0 mm 5 m/s 755 mmHg 49%
16:00 +16°C° 0 mm 5 m/s 755 mmHg 51%
17:00 +16°C° 0 mm 5 m/s 755 mmHg 53%
18:00 +14°C° 0 mm 4 m/s 756 mmHg 60%
19:00 +13°C° 0 mm 3 m/s 756 mmHg 66%
20:00 +11°C° 0 mm 3 m/s 757 mmHg 73%
21:00 +10°C° 0 mm 3 m/s 757 mmHg 74%
22:00 +10°C° 0 mm 3 m/s 757 mmHg 76%
23:00 +9°C° 0 mm 3 m/s 757 mmHg 78%

22 Aprilie, Joi

Timp Temperatura Precipitaţii Vânt Presiune Umiditate
00:00 +9°C° 0 mm 3 m/s 757 mmHg 80%
01:00 +8°C° 0 mm 3 m/s 758 mmHg 82%
02:00 +8°C° 0 mm 3 m/s 758 mmHg 84%
03:00 +7°C° 0 mm 3 m/s 758 mmHg 85%
04:00 +7°C° 0 mm 3 m/s 758 mmHg 86%
05:00 +7°C° 0 mm 2 m/s 758 mmHg 87%
06:00 +8°C° 0 mm 3 m/s 758 mmHg 82%
07:00 +10°C° 0 mm 3 m/s 759 mmHg 77%
08:00 +11°C° 0 mm 3 m/s 759 mmHg 71%
09:00 +13°C° 0 mm 3 m/s 759 mmHg 65%
10:00 +16°C° 0 mm 3 m/s 759 mmHg 59%
11:00 +17°C° 0 mm 3 m/s 759 mmHg 53%
12:00 +18°C° 0 mm 3 m/s 758 mmHg 50%
13:00 +19°C° 0 mm 3 m/s 758 mmHg 46%
14:00 +20°C° 0 mm 3 m/s 758 mmHg 43%
15:00 +20°C° 0 mm 3 m/s 758 mmHg 44%
16:00 +20°C° 0 mm 2 m/s 757 mmHg 45%
17:00 +20°C° 0 mm 2 m/s 757 mmHg 46%
18:00 +19°C° 0 mm 1 m/s 757 mmHg 49%
19:00 +18°C° 0 mm 1 m/s 757 mmHg 53%
20:00 +15°C° 0 mm 1 m/s 757 mmHg 57%
21:00 +14°C° 0.1 mm 1 m/s 757 mmHg 62%
22:00 +14°C° 0.1 mm 2 m/s 757 mmHg 66%
23:00 +13°C° 0.1 mm 2 m/s 757 mmHg 71%
Arată mai mult

Formular de consimțământ

Meteoprog și furnizorii noștri de servicii pot stoca și accesa date personale, precum cookies, identificatori de dispozitiv sau alte tehnologii similare pe dispozitivul dumneavoastră și procesa astfel de date pentru a personaliza conținutul și reclamele, dar și pentru a oferi caracteristici de social media și pentru a analiza traficul.

  • Stocarea și/sau accesarea informațiilor pe dispozitivul dumneavoastră

    Cookies, identificatori de dispozitiv sau alte informații pot fi stocate sau accesate pe dispozitiv în scopurile indicate mai sus.

  • Reclame și conținut personalizat, evaluarea reclamelor și a conținutului, informații despre audiențe și dezvoltarea produselor

    Reclamele și conținutul pot fi personalizate pe baza unui profil. Pot fi adăugate date suplimentare pentru a personaliza mai bine reclamele și conținutul. Performanța reclamelor și conținutului poate fi măsurată. Pot fi obținute informații despre utilizatorii care au văzut reclamele și conținutul. Aceste date pot fi utilizate pentru a dezvolta sau îmbunătăți experiența utilizatorilor, sistemele și software-ul.

Dând clic pe ‘Sunt de acord’, permiteți utilizarea cookie-urilor menționate, a identificatorilor de dispozitiv, balizelor web sau altor tehnologii similare. Setările pot fi modificate din browser-ul dispozitivului dumneavoastră.

În anumite scopuri, interesele legitime pot prima asupra consimțământului. Puteți citi mai multe informații în acest sens în Politica privind Confidențialitatea Datelor și Cookie.